Date String (YYYY-MM-DD hh:mm:ss) UTC,Instrument flags,Ambient pressure (hPa),Sample flow (lpm),Bypass flow (lpm),Sample temperature (°C),Ambient temperature (°C),ASC tube jacket temperature (°C),LED temperature (°C),Box temperature (°C),Sample RH (%),Span deviation,Mass concentration (μg/m³),Mass concentration (μg/m³),Mass concentration (μg/m³)
DateTimeUTC,F1_M11,P_M11,Q1_M11,Q2_M11,T1_M11,T2_M11,T3_M11,T4_M11,T5_M11,U1_M11,ZSPAN_M11,X2_M11,X0_M11,X1_M11
2022-03-25 20:00:00,,0829.1,5.00,0.00,26.8,26.1,00.0,35.6,28.7,13.3,0000.0,0007.44,0022.77,0005.46
2022-03-25 20:01:00,,0829.0,4.99,0.00,26.8,26.1,00.0,35.6,28.7,13.4,0000.0,0007.40,0022.56,0005.47
2022-03-25 20:02:00,,0829.1,5.00,0.00,26.8,26.2,00.0,35.6,28.7,13.3,0000.0,0007.36,0021.82,0005.50
2022-03-25 20:03:00,,0829.1,5.00,0.00,26.8,26.2,00.0,35.6,28.7,13.4,0000.0,0007.38,0021.23,0005.52
2022-03-25 20:04:00,,0829.0,5.00,0.00,26.8,26.2,00.0,35.6,28.7,13.4,0000.0,0007.39,0021.02,0005.53
2022-03-25 20:05:00,,0829.0,5.00,0.00,26.9,26.2,00.0,35.7,28.7,13.6,0000.0,0007.41,0021.39,0005.55
2022-03-25 20:06:00,,0828.9,5.01,0.00,26.9,26.3,00.0,35.7,28.8,13.6,0000.0,0007.42,0021.31,0005.52
2022-03-25 20:07:00,,0829.0,5.00,0.00,26.9,26.3,00.0,35.7,28.8,13.6,0000.0,0007.38,0020.87,0005.51
2022-03-25 20:08:00,,0829.0,5.00,0.00,26.9,26.3,00.0,35.7,28.8,13.4,0000.0,0007.38,0018.77,0005.49
2022-03-25 20:09:00,,0828.9,4.99,0.00,26.9,26.3,00.0,35.7,28.8,13.5,0000.0,0007.37,0018.33,0005.46
2022-03-25 20:10:00,,0828.8,5.00,0.00,27.0,26.3,00.0,35.8,28.8,13.3,0000.0,0007.35,0019.03,0005.45
2022-03-25 20:11:00,,0828.9,5.01,0.00,27.0,26.3,00.0,35.8,28.9,13.3,0000.0,0007.28,0020.02,0005.42
2022-03-25 20:12:00,,0828.7,5.00,0.00,27.0,26.4,00.0,35.8,28.9,13.3,0000.0,0007.28,0020.04,0005.41
2022-03-25 20:13:00,,0828.7,5.01,0.00,27.0,26.4,00.0,35.8,28.9,13.3,0000.0,0007.29,0021.11,0005.39
2022-03-25 20:14:00,,0828.6,5.00,0.00,27.0,26.4,00.0,35.8,28.9,13.3,0000.0,0007.28,0022.58,0005.37
2022-03-25 20:15:00,,0828.6,5.01,0.00,27.0,26.4,00.0,35.8,29.0,13.3,0000.0,0007.23,0022.11,0005.35
2022-03-25 20:16:00,,0828.7,5.00,0.00,27.1,26.4,00.0,35.9,29.0,13.9,0000.0,0007.10,0021.46,0005.31
2022-03-25 20:17:00,,0828.7,5.00,0.00,27.1,26.4,00.0,35.9,29.0,13.7,0000.0,0007.08,0022.31,0005.31
2022-03-25 20:18:00,,0828.7,5.00,0.00,27.1,26.4,00.0,35.9,29.0,13.9,0000.0,0007.12,0022.84,0005.32
2022-03-25 20:19:00,,0828.6,5.00,0.00,27.1,26.4,00.0,35.9,29.0,13.7,0000.0,0007.15,0024.28,0005.34
2022-03-25 20:20:00,,0828.6,5.01,0.00,27.1,26.4,00.0,35.9,29.0,13.4,0000.0,0007.24,0026.05,0005.35
2022-03-25 20:21:00,,0829.1,5.00,0.00,27.1,26.4,00.0,35.9,29.0,13.8,0000.0,0007.24,0026.57,0005.36
2022-03-25 20:22:00,,0828.9,5.01,0.00,27.1,26.4,00.0,35.9,29.0,13.9,0000.0,0007.30,0025.39,0005.37
2022-03-25 20:23:00,,0828.5,5.00,0.00,27.1,26.4,00.0,35.9,29.0,13.8,0000.0,0007.30,0024.94,0005.38
2022-03-25 20:24:00,,0829.0,5.00,0.00,27.1,26.4,00.0,36.0,29.0,13.3,0000.0,0007.33,0024.28,0005.39
2022-03-25 20:25:00,,0828.7,5.00,0.00,27.1,26.4,00.0,36.0,29.0,13.4,0000.0,0007.36,0023.00,0005.41
2022-03-25 20:26:00,,0828.4,5.00,0.00,27.1,26.4,00.0,36.0,29.0,13.6,0000.0,0007.35,0022.64,0005.42
2022-03-25 20:27:00,,0828.4,5.00,0.00,27.1,26.4,00.0,36.0,29.0,13.2,0000.0,0007.41,0023.09,0005.46
2022-03-25 20:28:00,,0828.4,5.00,0.00,27.1,26.4,00.0,36.0,28.9,13.2,0000.0,0007.43,0024.46,0005.48
2022-03-25 20:29:00,,0828.4,5.00,0.00,27.1,26.4,00.0,36.0,28.9,13.6,0000.0,0007.46,0025.42,0005.49
2022-03-25 20:30:00,,0828.4,5.00,0.00,27.1,26.3,00.0,36.0,28.9,13.4,0000.0,0007.49,0024.35,0005.50
2022-03-25 20:31:00,,0828.5,5.01,0.00,27.1,26.3,00.0,36.0,28.9,13.4,0000.0,0007.47,0022.34,0005.51
2022-03-25 20:32:00,,0828.4,5.01,0.00,27.1,26.3,00.0,36.0,28.9,13.4,0000.0,0007.48,0022.20,0005.53
2022-03-25 20:33:00,,0828.4,5.00,0.00,27.1,26.3,00.0,36.0,28.9,13.2,0000.0,0007.49,0022.25,0005.57
2022-03-25 20:34:00,,0828.4,5.00,0.00,27.1,26.3,00.0,36.0,28.9,13.4,0000.0,0007.53,0022.76,0005.58
2022-03-25 20:35:00,,0828.4,4.99,0.00,27.1,26.3,00.0,36.0,28.9,13.2,0000.0,0007.53,0022.49,0005.59
2022-03-25 20:36:00,,0828.3,5.01,0.00,27.1,26.3,00.0,36.0,28.9,13.4,0000.0,0007.52,0023.04,0005.60
2022-03-25 20:37:00,,0828.4,5.00,0.00,27.1,26.3,00.0,36.0,28.9,13.5,0000.0,0007.60,0023.49,0005.62
2022-03-25 20:38:00,,0828.3,5.00,0.00,27.1,26.3,00.0,36.0,28.8,13.5,0000.0,0007.66,0023.38,0005.65
2022-03-25 20:39:00,,0828.3,4.98,0.00,27.1,26.3,00.0,36.0,28.8,13.7,0000.0,0007.74,0022.28,0005.69
2022-03-25 20:40:00,,0828.4,5.01,0.00,27.1,26.3,00.0,36.0,28.9,13.8,0000.0,0007.71,0020.71,0005.72
2022-03-25 20:41:00,,0828.3,5.00,0.00,27.1,26.3,00.0,36.0,28.9,13.2,0000.0,0007.69,0019.81,0005.77
2022-03-25 20:42:00,,0828.3,5.00,0.00,27.1,26.3,00.0,36.0,28.9,13.3,0000.0,0007.72,0020.04,0005.82
2022-03-25 20:43:00,,0828.1,4.99,0.00,27.1,26.4,00.0,36.0,28.9,13.6,0000.0,0007.75,0019.67,0005.86
2022-03-25 20:44:00,,0828.2,5.00,0.00,27.1,26.4,00.0,36.0,28.9,13.6,0000.0,0007.77,0019.62,0005.88
2022-03-25 20:45:00,,0828.2,4.99,0.00,27.1,26.4,00.0,36.0,28.9,13.6,0000.0,0007.78,0019.45,0005.91
2022-03-25 20:46:00,,0828.3,5.01,0.00,27.1,26.4,00.0,36.0,28.9,13.6,0000.0,0007.86,0020.91,0005.94
2022-03-25 20:47:00,,0828.2,4.99,0.00,27.1,26.4,00.0,36.0,28.9,13.4,0000.0,0007.90,0020.55,0005.98
2022-03-25 20:48:00,,0828.1,5.00,0.00,27.1,26.4,00.0,36.0,28.9,13.4,0000.0,0007.91,0022.44,0006.01
2022-03-25 20:49:00,,0828.2,4.99,0.00,27.1,26.4,00.0,36.1,29.0,13.7,0000.0,0008.02,0023.64,0006.03
2022-03-25 20:50:00,,0828.0,5.00,0.00,27.2,26.4,00.0,36.1,29.0,13.6,0000.0,0008.06,0024.24,0006.03
2022-03-25 20:51:00,,0828.1,5.01,0.00,27.2,26.4,00.0,36.1,29.0,13.4,0000.0,0008.11,0025.07,0006.03
2022-03-25 20:52:00,,0828.1,5.01,0.00,27.1,26.4,00.0,36.1,28.9,13.2,0000.0,0008.11,0025.19,0006.03
2022-03-25 20:53:00,,0828.2,5.00,0.00,27.1,26.4,00.0,36.1,28.9,13.2,0000.0,0008.12,0024.65,0006.04
2022-03-25 20:54:00,,0828.0,5.01,0.00,27.1,26.4,00.0,36.1,28.9,13.2,0000.0,0008.17,0025.02,0006.05
2022-03-25 20:55:00,,0828.0,5.00,0.00,27.1,26.5,00.0,36.1,29.0,13.3,0000.0,0008.16,0025.61,0006.06
2022-03-25 20:56:00,,0828.0,4.99,0.00,27.1,26.5,00.0,36.1,29.0,13.3,0000.0,0008.25,0025.45,0006.08
2022-03-25 20:57:00,,0828.0,5.02,0.00,27.2,26.5,00.0,36.1,29.0,13.4,0000.0,0008.20,0023.93,0006.09
2022-03-25 20:58:00,,0828.0,5.00,0.00,27.2,26.5,00.0,36.1,29.0,13.5,0000.0,0008.18,0023.87,0006.07
2022-03-25 20:59:00,,0828.0,5.00,0.00,27.2,26.5,00.0,36.1,29.0,13.5,0000.0,0008.18,0022.10,0006.06
